This is the latest recevied weather packets stored in our database for station/object KO4ZGL-13. If no packets are shown the sender has not sent any weather packets the latest 1 day(s).
| Time | Temp. | Humidity | Pressure | Rain* | Wind** | Luminosity | Snow |
|---|---|---|---|---|---|---|---|
| 1778012233 | 26.67° C | 55% | 1016.6 hPa | 0 mm | 0.45 m/s, 321° | 551 W/m² | - |
| 1778011931 | 26.67° C | 52% | 1016.6 hPa | 0 mm | 1.79 m/s, 333° | 562 W/m² | - |
| 1778011629 | 26.11° C | 55% | 1016.5 hPa | 0 mm | 2.24 m/s, 50° | 584 W/m² | - |
| 1778011325 | 27.22° C | 54% | 1016.6 hPa | 0 mm | 2.24 m/s, 40° | 509 W/m² | - |
| 1778011021 | 27.78° C | 49% | 1016.7 hPa | 0 mm | 1.34 m/s, 279° | 563 W/m² | - |
| 1778010718 | 27.78° C | 51% | 1016.5 hPa | 0 mm | 2.24 m/s, 44° | 555 W/m² | - |
| 1778010416 | 27.78° C | 50% | 1016.8 hPa | 0 mm | 2.24 m/s, 347° | 599 W/m² | - |
| 1778010111 | 27.22° C | 52% | 1016.8 hPa | 0 mm | 0.45 m/s, 11° | 573 W/m² | - |
| 1778009808 | 27.78° C | 49% | 1016.9 hPa | 0 mm | 0.89 m/s, 342° | 547 W/m² | - |
| 1778009505 | 27.22° C | 53% | 1017.1 hPa | 0 mm | 0.45 m/s, 329° | 591 W/m² | - |
| 1778009204 | 27.78° C | 50% | 1017.2 hPa | 0 mm | 1.79 m/s, 358° | 645 W/m² | - |
| 1778008901 | 27.22° C | 50% | 1017.4 hPa | 0 mm | 0 m/s | 623 W/m² | - |
| 1778008599 | 27.78° C | 49% | 1017.4 hPa | 0 mm | 2.24 m/s, 5° | 600 W/m² | - |
| 1778008297 | 27.22° C | 50% | 1017.5 hPa | 0 mm | 1.79 m/s, 37° | 665 W/m² | - |
| 1778007993 | 27.78° C | 51% | 1017.6 hPa | 0 mm | 2.68 m/s, 23° | 657 W/m² | - |
| 1778007687 | 27.22° C | 51% | 1017.7 hPa | 0 mm | 0.45 m/s, 316° | 572 W/m² | - |
| 1778007385 | 28.33° C | 53% | 1017.8 hPa | 0 mm | 0 m/s | 486 W/m² | - |
| 1778007081 | 27.78° C | 48% | 1017.5 hPa | 0 mm | 1.34 m/s, 333° | 572 W/m² | - |
| 1778006777 | 27.78° C | 51% | 1017.6 hPa | 0 mm | 0.89 m/s, 359° | 693 W/m² | - |
| 1778006474 | 27.22° C | 50% | 1017.7 hPa | 0 mm | 1.34 m/s, 261° | 713 W/m² | - |
| 1778006171 | 27.78° C | 49% | 1017.6 hPa | 0 mm | 0.45 m/s, 351° | 689 W/m² | - |
| 1778005869 | 27.22° C | 52% | 1017.5 hPa | 0 mm | 0.45 m/s, 321° | 702 W/m² | - |
| 1778005565 | 27.78° C | 50% | 1017.5 hPa | 0 mm | 0.45 m/s, 336° | 719 W/m² | - |
| 1778005262 | 27.22° C | 51% | 1017.5 hPa | 0 mm | 1.34 m/s, 322° | 673 W/m² | - |
| 1778004958 | 27.22° C | 50% | 1017.3 hPa | 0 mm | 1.79 m/s, 2° | 700 W/m² | - |
* Rain latest hour (hover to see other rain measurements)
** Current wind speed in m/s (hover to see current wind gust speed)